Time,TemperatureF,DewpointF,PressureIn,WindDirection,WindDirectionDegrees,WindSpeedMPH,WindSpeedGustMPH,Humidity,HourlyPrecipIn,Conditions,Clouds,dailyrainin,SolarRadiationWatts/m^2,SoftwareType,DateUTC
2013-03-17 00:22:00,35.0,28.0,-100.00,West,264,22.0,34.0,76,0.00,,,0.00,1.000000,,2013-03-17 07:22:00,
2013-03-17 00:32:00,35.0,28.0,-100.00,West,264,22.0,34.0,76,0.00,,,0.00,1.000000,,2013-03-17 07:32:00,
2013-03-17 00:42:00,35.0,28.0,-100.00,West,264,22.0,34.0,76,0.00,,,0.00,1.000000,,2013-03-17 07:42:00,
2013-03-17 00:52:00,35.0,28.0,-100.00,West,264,22.0,34.0,76,0.00,,,0.00,1.000000,,2013-03-17 07:52:00,
2013-03-17 01:22:00,34.0,25.0,-100.00,West,261,12.0,32.0,70,0.00,,,0.00,1.000000,,2013-03-17 08:22:00,
2013-03-17 01:32:00,34.0,25.0,-100.00,West,261,12.0,32.0,70,0.00,,,0.00,1.000000,,2013-03-17 08:32:00,
2013-03-17 01:42:00,34.0,25.0,-100.00,West,261,12.0,32.0,70,0.00,,,0.00,1.000000,,2013-03-17 08:42:00,
2013-03-17 01:52:00,34.0,25.0,-100.00,West,261,12.0,32.0,70,0.00,,,0.00,1.000000,,2013-03-17 08:52:00,
2013-03-17 02:22:00,34.0,25.0,-100.00,West,260,18.0,34.0,68,0.00,,,0.00,1.000000,,2013-03-17 09:22:00,
2013-03-17 02:32:00,34.0,25.0,-100.00,West,260,18.0,34.0,68,0.00,,,0.00,1.000000,,2013-03-17 09:32:00,
2013-03-17 02:42:00,34.0,25.0,-100.00,West,260,18.0,34.0,68,0.00,,,0.00,1.000000,,2013-03-17 09:42:00,
2013-03-17 02:52:00,34.0,25.0,-100.00,West,260,18.0,34.0,68,0.00,,,0.00,1.000000,,2013-03-17 09:52:00,
2013-03-17 03:23:00,34.0,24.0,-100.00,West,259,14.0,31.0,67,0.00,,,0.00,1.000000,,2013-03-17 10:23:00,
2013-03-17 03:33:00,34.0,24.0,-100.00,West,259,14.0,31.0,67,0.00,,,0.00,1.000000,,2013-03-17 10:33:00,
2013-03-17 03:42:00,34.0,24.0,-100.00,West,259,14.0,31.0,67,0.00,,,0.00,1.000000,,2013-03-17 10:42:00,
2013-03-17 03:52:00,34.0,24.0,-100.00,West,259,14.0,31.0,67,0.00,,,0.00,1.000000,,2013-03-17 10:52:00,
2013-03-17 04:22:00,31.0,23.0,-100.00,WSW,251,12.0,30.0,72,0.00,,,0.00,1.000000,,2013-03-17 11:22:00,
2013-03-17 04:32:00,31.0,23.0,-100.00,WSW,251,12.0,30.0,72,0.00,,,0.00,1.000000,,2013-03-17 11:32:00,
2013-03-17 04:42:00,31.0,23.0,-100.00,WSW,251,12.0,30.0,72,0.00,,,0.00,1.000000,,2013-03-17 11:42:00,
2013-03-17 04:51:00,31.0,23.0,-100.00,WSW,251,12.0,30.0,72,0.00,,,0.00,1.000000,,2013-03-17 11:51:00,
2013-03-17 05:22:00,31.0,23.0,-100.00,WSW,241,11.0,23.0,72,0.00,,,0.00,1.000000,,2013-03-17 12:22:00,
2013-03-17 05:32:00,31.0,23.0,-100.00,WSW,241,11.0,23.0,72,0.00,,,0.00,1.000000,,2013-03-17 12:32:00,
2013-03-17 05:42:00,31.0,23.0,-100.00,WSW,241,11.0,23.0,72,0.00,,,0.00,1.000000,,2013-03-17 12:42:00,
2013-03-17 05:51:00,31.0,23.0,-100.00,WSW,241,11.0,23.0,72,0.00,,,0.00,1.000000,,2013-03-17 12:51:00,
2013-03-17 06:22:00,30.0,22.0,-100.00,WSW,254,8.0,16.0,73,0.00,,,0.00,1.000000,,2013-03-17 13:22:00,
2013-03-17 06:32:00,30.0,22.0,-100.00,WSW,254,8.0,16.0,73,0.00,,,0.00,1.000000,,2013-03-17 13:32:00,
2013-03-17 06:42:00,30.0,22.0,-100.00,WSW,254,8.0,16.0,73,0.00,,,0.00,1.000000,,2013-03-17 13:42:00,
2013-03-17 06:52:00,30.0,22.0,-100.00,WSW,254,8.0,16.0,73,0.00,,,0.00,1.000000,,2013-03-17 13:52:00,
2013-03-17 07:22:00,28.0,22.0,-100.00,NNE,20,1.0,17.0,79,0.00,,,0.00,1.000000,,2013-03-17 14:22:00,
2013-03-17 07:32:00,28.0,22.0,-100.00,NNE,20,1.0,17.0,79,0.00,,,0.00,1.000000,,2013-03-17 14:32:00,
2013-03-17 07:42:00,28.0,22.0,-100.00,NNE,20,1.0,17.0,79,0.00,,,0.00,1.000000,,2013-03-17 14:42:00,
2013-03-17 07:52:00,28.0,22.0,-100.00,NNE,20,1.0,17.0,79,0.00,,,0.00,1.000000,,2013-03-17 14:52:00,
2013-03-17 08:23:00,27.0,23.0,-100.00,East,83,2.0,4.0,83,0.00,,,0.00,12.000000,,2013-03-17 15:23:00,
2013-03-17 08:33:00,27.0,23.0,-100.00,East,83,2.0,4.0,83,0.00,,,0.00,12.000000,,2013-03-17 15:33:00,
2013-03-17 08:42:00,27.0,23.0,-100.00,East,83,2.0,4.0,83,0.00,,,0.00,12.000000,,2013-03-17 15:42:00,
2013-03-17 08:52:00,27.0,23.0,-100.00,East,83,2.0,4.0,83,0.00,,,0.00,12.000000,,2013-03-17 15:52:00,
2013-03-17 09:22:00,29.0,23.0,-100.00,ESE,113,1.0,4.0,77,0.00,,,0.00,52.000000,,2013-03-17 16:22:00,
2013-03-17 09:33:00,29.0,23.0,-100.00,ESE,113,1.0,4.0,77,0.00,,,0.00,52.000000,,2013-03-17 16:33:00,
2013-03-17 09:42:00,29.0,23.0,-100.00,ESE,113,1.0,4.0,77,0.00,,,0.00,52.000000,,2013-03-17 16:42:00,
2013-03-17 09:52:00,29.0,23.0,-100.00,ESE,113,1.0,4.0,77,0.00,,,0.00,52.000000,,2013-03-17 16:52:00,
2013-03-17 10:22:00,37.0,22.0,-100.00,WSW,255,3.0,7.0,55,0.00,,,0.00,388.000000,,2013-03-17 17:22:00,
2013-03-17 10:33:00,37.0,22.0,-100.00,WSW,255,3.0,7.0,55,0.00,,,0.00,388.000000,,2013-03-17 17:33:00,
2013-03-17 10:42:00,37.0,22.0,-100.00,WSW,255,3.0,7.0,55,0.00,,,0.00,388.000000,,2013-03-17 17:42:00,
2013-03-17 10:52:00,37.0,22.0,-100.00,WSW,255,3.0,7.0,55,0.00,,,0.00,388.000000,,2013-03-17 17:52:00,
2013-03-17 12:22:00,39.0,21.0,-100.00,NW,314,7.0,12.0,48,-99.99,,,0.00,706.000000,,2013-03-17 19:22:00,
2013-03-17 12:32:00,39.0,21.0,-100.00,NW,314,7.0,12.0,48,-99.99,,,0.00,706.000000,,2013-03-17 19:32:00,
2013-03-17 12:41:00,39.0,21.0,-100.00,NW,314,7.0,12.0,48,-99.99,,,0.00,706.000000,,2013-03-17 19:41:00,
2013-03-17 12:53:00,39.0,21.0,-100.00,NW,314,7.0,12.0,48,-99.99,,,0.00,706.000000,,2013-03-17 19:53:00,
2013-03-17 13:22:00,42.0,18.0,-100.00,West,279,5.0,14.0,38,0.00,,,0.00,792.000000,,2013-03-17 20:22:00,
2013-03-17 13:32:00,42.0,18.0,-100.00,West,279,5.0,14.0,38,0.00,,,0.00,792.000000,,2013-03-17 20:32:00,
2013-03-17 13:42:00,42.0,18.0,-100.00,West,279,5.0,14.0,38,0.00,,,0.00,792.000000,,2013-03-17 20:42:00,
2013-03-17 13:52:00,42.0,18.0,-100.00,West,279,5.0,14.0,38,0.00,,,0.00,792.000000,,2013-03-17 20:52:00,
2013-03-17 14:22:00,43.0,19.0,-100.00,WSW,242,7.0,13.0,38,0.00,,,0.00,821.000000,,2013-03-17 21:22:00,
2013-03-17 14:33:00,43.0,19.0,-100.00,WSW,242,7.0,13.0,38,0.00,,,0.00,821.000000,,2013-03-17 21:33:00,
2013-03-17 14:42:00,43.0,19.0,-100.00,WSW,242,7.0,13.0,38,0.00,,,0.00,821.000000,,2013-03-17 21:42:00,
2013-03-17 14:52:00,43.0,19.0,-100.00,WSW,242,7.0,13.0,38,0.00,,,0.00,821.000000,,2013-03-17 21:52:00,
2013-03-17 15:23:00,44.0,23.0,-100.00,SW,232,9.0,17.0,43,0.00,,,0.00,787.000000,,2013-03-17 22:23:00,
2013-03-17 15:33:00,44.0,23.0,-100.00,SW,232,9.0,17.0,43,0.00,,,0.00,787.000000,,2013-03-17 22:33:00,
2013-03-17 15:42:00,44.0,23.0,-100.00,SW,232,9.0,17.0,43,0.00,,,0.00,787.000000,,2013-03-17 22:42:00,
2013-03-17 15:52:00,44.0,23.0,-100.00,SW,232,9.0,17.0,43,0.00,,,0.00,787.000000,,2013-03-17 22:52:00,
2013-03-17 16:22:00,44.0,22.0,-100.00,WNW,295,10.0,16.0,41,0.00,,,0.00,683.000000,,2013-03-17 23:22:00,
2013-03-17 16:32:00,44.0,22.0,-100.00,WNW,295,10.0,16.0,41,0.00,,,0.00,683.000000,,2013-03-17 23:32:00,
2013-03-17 16:42:00,44.0,22.0,-100.00,WNW,295,10.0,16.0,41,0.00,,,0.00,683.000000,,2013-03-17 23:42:00,
2013-03-17 16:52:00,44.0,22.0,-100.00,WNW,295,10.0,16.0,41,0.00,,,0.00,683.000000,,2013-03-17 23:52:00,
2013-03-17 17:22:00,44.0,21.0,-100.00,WNW,298,10.0,18.0,39,0.00,,,0.00,547.000000,,2013-03-18 00:22:00,
2013-03-17 17:33:00,44.0,21.0,-100.00,WNW,298,10.0,18.0,39,0.00,,,0.00,547.000000,,2013-03-18 00:33:00,
2013-03-17 17:42:00,44.0,21.0,-100.00,WNW,298,10.0,18.0,39,0.00,,,0.00,547.000000,,2013-03-18 00:42:00,
2013-03-17 17:52:00,44.0,21.0,-100.00,WNW,298,10.0,18.0,39,0.00,,,0.00,547.000000,,2013-03-18 00:52:00,
2013-03-17 18:22:00,43.0,22.0,-100.00,NW,304,7.0,14.0,42,0.00,,,0.00,354.000000,,2013-03-18 01:22:00,
2013-03-17 18:32:00,43.0,22.0,-100.00,NW,304,7.0,14.0,42,0.00,,,0.00,354.000000,,2013-03-18 01:32:00,
2013-03-17 18:42:00,43.0,22.0,-100.00,NW,304,7.0,14.0,42,0.00,,,0.00,354.000000,,2013-03-18 01:42:00,
2013-03-17 18:52:00,43.0,22.0,-100.00,NW,304,7.0,14.0,42,0.00,,,0.00,354.000000,,2013-03-18 01:52:00,
2013-03-17 19:22:00,38.0,21.0,-100.00,WNW,300,7.0,12.0,49,0.00,,,0.00,138.000000,,2013-03-18 02:22:00,
2013-03-17 19:32:00,38.0,21.0,-100.00,WNW,300,7.0,12.0,49,0.00,,,0.00,138.000000,,2013-03-18 02:32:00,
2013-03-17 19:42:00,38.0,21.0,-100.00,WNW,300,7.0,12.0,49,0.00,,,0.00,138.000000,,2013-03-18 02:42:00,
2013-03-17 19:52:00,38.0,21.0,-100.00,WNW,300,7.0,12.0,49,0.00,,,0.00,138.000000,,2013-03-18 02:52:00,
2013-03-17 20:22:00,33.0,21.0,-100.00,WNW,292,6.0,9.0,60,0.00,,,0.00,8.000000,,2013-03-18 03:22:00,
2013-03-17 20:33:00,33.0,21.0,-100.00,WNW,292,6.0,9.0,60,0.00,,,0.00,8.000000,,2013-03-18 03:33:00,
2013-03-17 20:42:00,33.0,21.0,-100.00,WNW,292,6.0,9.0,60,0.00,,,0.00,8.000000,,2013-03-18 03:42:00,
2013-03-17 20:52:00,33.0,21.0,-100.00,WNW,292,6.0,9.0,60,0.00,,,0.00,8.000000,,2013-03-18 03:52:00,
2013-03-17 21:22:00,31.0,21.0,-100.00,WNW,298,5.0,10.0,67,0.00,,,0.00,1.000000,,2013-03-18 04:22:00,
2013-03-17 21:33:00,31.0,21.0,-100.00,WNW,298,5.0,10.0,67,0.00,,,0.00,1.000000,,2013-03-18 04:33:00,
2013-03-17 21:42:00,31.0,21.0,-100.00,WNW,298,5.0,10.0,67,0.00,,,0.00,1.000000,,2013-03-18 04:42:00,
2013-03-17 21:52:00,31.0,21.0,-100.00,WNW,298,5.0,10.0,67,0.00,,,0.00,1.000000,,2013-03-18 04:52:00,
2013-03-17 22:22:00,30.0,21.0,-100.00,South,180,2.0,7.0,70,0.00,,,0.00,1.000000,,2013-03-18 05:22:00,
2013-03-17 22:32:00,30.0,21.0,-100.00,South,180,2.0,7.0,70,0.00,,,0.00,1.000000,,2013-03-18 05:32:00,
2013-03-17 22:42:00,30.0,21.0,-100.00,South,180,2.0,7.0,70,0.00,,,0.00,1.000000,,2013-03-18 05:42:00,
2013-03-17 22:52:00,30.0,21.0,-100.00,South,180,2.0,7.0,70,0.00,,,0.00,1.000000,,2013-03-18 05:52:00,
2013-03-17 23:22:00,28.0,22.0,-100.00,East,100,0.0,7.0,78,0.00,,,0.00,1.000000,,2013-03-18 06:22:00,
2013-03-17 23:32:00,28.0,22.0,-100.00,East,100,0.0,7.0,78,0.00,,,0.00,1.000000,,2013-03-18 06:32:00,
2013-03-17 23:42:00,28.0,22.0,-100.00,East,100,0.0,7.0,78,0.00,,,0.00,1.000000,,2013-03-18 06:42:00,
2013-03-17 23:52:00,28.0,22.0,-100.00,East,100,0.0,7.0,78,0.00,,,0.00,1.000000,,2013-03-18 06:52:00,